Miles City, MT

10:14 PM MDT on April 29, 2017 (GMT -0600)
Wiley

Weather History for KMLS - May, 2014

Change the Weather History Date:

Thursday, May 29, 2014

  Actual Average Record
Temperature  
Mean Temperature 65 °F 60 °F  
Max Temperature 73 °F 72 °F 100 °F (1988)
Min Temperature 56 °F 47 °F 31 °F (1947)
Degree Days  
Heating Degree Days 0 6  
Month to date heating degree days 305 290  
Since 1 July heating degree days 8005 7536  
Cooling Degree Days 0 1  
Month to date cooling degree days 31 16  
Year to date cooling degree days 31 17  
Growing Degree Days 16 (Base 50)    
Moisture  
Dew Point 48 °F    
Average Humidity 56    
Maximum Humidity 78    
Minimum Humidity 34    
Precipitation  
Precipitation 0.00 in 0.08 in 1.22 in (2013)
Month to date precipitation 2.51 2.01  
Year to date precipitation 4.40 4.53  
Sea Level Pressure  
Sea Level Pressure 29.87 in    
Wind  
Wind Speed 12 mph (NNW)    
Max Wind Speed 25 mph    
Max Gust Speed 31 mph    
Visibility 10 miles    
Events      
T = Trace of Precipitation, MM = Missing Value Source: NWS Daily Summary

Daily Weather History Graph

Daily Weather History Graph

Search for Another Location

Airport or City:

Trip Planner

Search our weather history database for the weather conditions in past years. The results will help you decide how hot, cold, wet, or windy it might be!

Date:

Astronomy

May. 29, 2014 Rise Set
Actual Time 5:16 AM MDT 8:45 PM MDT
Civil Twilight 4:39 AM MDT 9:23 PM MDT
Nautical Twilight 3:49 AM MDT 10:13 PM MDT
Astronomical Twilight 2:44 AM MDT 11:18 PM MDT
Moon 6:15 AM MDT (5/29) 9:34 PM MDT (5/29)
Length of Visible Light 16h 44m
Length of Day
15h 29m
New Moon, 1% of the Moon is Illuminated
May 29
New Moon
Jun 5
First Quarter
Jun 12
Full
Jun 19
Last Quarter
Jun 27
New

Hourly Weather History & Observations

Time (MDT) Temp. Dew Point Humidity Pressure Visibility Wind Dir Wind Speed Gust Speed Precip Events Conditions
12:53 AM 73.0 °F 50.0 °F 44% 29.64 in 10.0 mi SE 4.6 mph - N/A   Clear
2:53 AM 69.1 °F 52.0 °F 54% 29.65 in 10.0 mi NW 9.2 mph - N/A   Clear
3:53 AM 64.9 °F 55.0 °F 70% 29.67 in 10.0 mi Calm Calm - N/A   Clear
4:53 AM 64.9 °F 55.9 °F 73% 29.70 in 10.0 mi NW 21.9 mph 28.8 mph N/A   Clear
5:53 AM 62.1 °F 55.9 °F 80% 29.74 in 10.0 mi NNW 11.5 mph - N/A   Clear
6:53 AM 62.1 °F 55.9 °F 80% 29.78 in 10.0 mi NW 16.1 mph - N/A   Clear
7:53 AM 64.0 °F 53.1 °F 67% 29.80 in 10.0 mi NNW 12.7 mph - N/A   Clear
8:53 AM 66.0 °F 52.0 °F 60% 29.83 in 10.0 mi NW 17.3 mph - N/A   Clear
9:53 AM 68.0 °F 52.0 °F 56% 29.84 in 10.0 mi NNW 15.0 mph - N/A   Clear
10:53 AM 71.1 °F 52.0 °F 51% 29.87 in 10.0 mi WNW 16.1 mph - N/A   Clear
11:53 AM 71.1 °F 50.0 °F 47% 29.86 in 10.0 mi NW 20.7 mph - N/A   Clear
12:53 PM 66.9 °F 48.0 °F 51% 29.90 in 10.0 mi NW 19.6 mph 26.5 mph N/A   Clear
1:53 PM 69.1 °F 48.9 °F 49% 29.92 in 10.0 mi NNW 19.6 mph - N/A   Clear
4:53 PM 69.1 °F 44.1 °F 40% 29.96 in 10.0 mi North 11.5 mph - N/A   Mostly Cloudy
5:53 PM 69.1 °F 43.0 °F 39% 29.96 in 10.0 mi North 12.7 mph - N/A   Clear
6:53 PM 71.1 °F 41.0 °F 34% 29.96 in 10.0 mi North 12.7 mph - N/A   Clear
7:53 PM 69.1 °F 41.0 °F 36% 29.99 in 10.0 mi NNW 10.4 mph - N/A   Clear
8:53 PM 66.0 °F 37.9 °F 36% 30.00 in 10.0 mi NNW 10.4 mph - N/A   Clear
9:53 PM 60.1 °F 37.9 °F 44% 30.04 in 10.0 mi NW 4.6 mph - N/A   Clear
10:53 PM 61.0 °F 43.0 °F 52% 30.06 in 10.0 mi Calm Calm - N/A   Overcast
11:53 PM 59.0 °F 46.0 °F 62% 30.04 in 10.0 mi ENE 5.8 mph - N/A   Partly Cloudy